Location: Newark
(42.8481°N, 0.4872°E)
Time: 23:52:06
(UTC+00:00)

Transit 2A - Pass Details

Date: 05 November 2020
Orbit: 595 x 963 km, 66.7° (Epoch: 03 December)

Event Time Altitude Azimuth Distance (km) Brightness Sun altitude
Rises 05:45:55 0° 336° (NNW) 3,482 9.0 -9.9°
Reaches altitude 10° 05:49:59 10° 3° (N) 2,456 8.5 -9.2°
Maximum altitude 05:52:39 13° 31° (NNE) 2,163 8.6 -8.7°
Drops below altitude 10° 05:55:13 10° 60° (ENE) 2,331 9.2 -8.3°
Sets 05:58:51 0° 87° (E) 3,162 10.9 -7.6°
